QPF
0.02 0.02 0.04 0.06 0.08 0.08 0.10 0.15 0.18 0.26 0.32 0.31 0.27 0.28 0.29 0.28 0.29 0.31 0.32 0.28 0.26 0.29 0.29 0.26 0.22 0.20 0.18 0.17 0.15 0.12 0.09 0.08 0.07 0.07 0.05 0.02 0.02 0.02 0.02 0.02 0.02 0.01 0.01
0.02 0.03 0.04 0.04 0.05 0.06 0.07 0.13 0.20 0.24 0.26 0.32 0.33 0.34 0.34 0.31 0.29 0.28 0.26 0.26 0.25 0.24 0.24 0.21 0.19 0.16 0.16 0.15 0.13 0.10 0.08 0.06 0.06 0.08 0.08 0.05 0.03 0.02 0.01 0.01 0.02 0.01 0.01
0.03 0.02 0.02 0.02 0.03 0.04 0.06 0.09 0.17 0.23 0.24 0.30 0.36 0.42 0.41 0.35 0.30 0.27 0.24 0.22 0.21 0.21 0.21 0.20 0.18 0.15 0.13 0.12 0.12 0.11 0.10 0.07 0.06 0.06 0.08 0.08 0.07 0.03 0.01 0.01 0.01 0.01 0.00
0.03 0.02 0.02 0.02 0.03 0.04 0.05 0.09 0.15 0.24 0.26 0.29 0.37 0.45 0.43 0.40 0.35 0.31 0.27 0.23 0.20 0.21 0.19 0.18 0.17 0.14 0.11 0.10 0.10 0.10 0.10 0.08 0.06 0.05 0.04 0.05 0.06 0.04 0.02 0.01 0.01 0.01 0.01
0.03 0.03 0.02 0.02 0.03 0.05 0.07 0.11 0.18 0.25 0.26 0.30 0.37 0.41 0.44 0.44 0.40 0.37 0.32 0.27 0.21 0.19 0.18 0.17 0.17 0.14 0.11 0.09 0.08 0.08 0.07 0.06 0.06 0.05 0.04 0.04 0.04 0.04 0.04 0.03 0.01 0.01 0.01
0.02 0.02 0.02 0.02 0.03 0.04 0.06 0.08 0.15 0.17 0.19 0.22 0.28 0.30 0.33 0.35 0.34 0.31 0.28 0.23 0.18 0.14 0.12 0.10 0.09 0.08 0.08 0.09 0.08 0.07 0.06 0.06 0.06 0.06 0.05 0.04 0.04 0.04 0.03 0.03 0.02 0.02 0.01
0.02 0.03 0.03 0.03 0.02 0.03 0.04 0.06 0.09 0.13 0.15 0.16 0.22 0.28 0.32 0.31 0.29 0.27 0.24 0.18 0.15 0.10 0.07 0.06 0.06 0.04 0.04 0.04 0.04 0.04 0.04 0.04 0.04 0.03 0.03 0.03 0.03 0.03 0.03 0.03 0.03 0.02 0.02
0.04 0.04 0.04 0.05 0.04 0.04 0.04 0.05 0.06 0.10 0.15 0.21 0.26 0.30 0.34 0.33 0.31 0.27 0.24 0.19 0.12 0.08 0.05 0.03 0.03 0.02 0.02 0.02 0.02 0.02 0.02 0.01 0.01 0.01 0.01 0.01 0.01 0.01 0.01 0.01 0.02 0.02 0.01
0.06 0.05 0.04 0.05 0.06 0.06 0.08 0.09 0.08 0.08 0.13 0.17 0.22 0.25 0.26 0.25 0.26 0.23 0.21 0.17 0.12 0.08 0.05 0.03 0.02 0.02 0.02 0.01 0.01 0.00 0.00 0.00 0.00 0.00 0.00 0.00 0.00 0.00 0.00 0.00 0.00 0.01 0.01
0.09 0.07 0.05 0.06 0.07 0.08 0.10 0.12 0.12 0.11 0.12 0.13 0.15 0.21 0.22 0.22 0.22 0.19 0.17 0.13 0.10 0.07 0.06 0.04 0.02 0.02 0.02 0.01 0.01 0.01 0.00 0.00 0.00 0.00 0.00 0.00 0.00 0.00 0.00 0.00 0.00 0.00 0.00
0.13 0.12 0.12 0.10 0.09 0.09 0.09 0.08 0.09 0.09 0.10 0.11 0.13 0.15 0.15 0.17 0.18 0.18 0.17 0.14 0.11 0.08 0.06 0.05 0.03 0.01 0.01 0.01 0.01 0.01 0.01 0.00 0.00 0.00 0.00 0.00 0.00 0.00 0.00 0.00 0.00 0.00 0.00
0.09 0.07 0.10 0.10 0.10 0.09 0.07 0.06 0.06 0.05 0.06 0.08 0.10 0.12 0.11 0.12 0.14 0.15 0.16 0.14 0.10 0.07 0.05 0.04 0.02 0.01 0.01 0.00 0.01 0.01 0.01 0.01 0.01 0.00 0.00 0.00 0.00 0.00 0.00 0.00 0.00 0.00 0.00
0.06 0.06 0.08 0.11 0.11 0.08 0.07 0.07 0.07 0.05 0.04 0.04 0.06 0.08 0.08 0.08 0.08 0.07 0.06 0.06 0.04 0.03 0.02 0.01 0.01 0.01 0.01 0.01 0.01 0.01 0.01 0.01 0.01 0.01 0.01 0.00 0.00 0.00 0.00 0.00 0.00 0.00 0.00
0.10 0.09 0.10 0.13 0.11 0.07 0.08 0.08 0.07 0.05 0.04 0.03 0.04 0.05 0.05 0.05 0.04 0.03 0.02 0.02 0.02 0.01 0.01 0.01 0.00 0.00 0.00 0.00 0.00 0.00 0.00 0.00 0.00 0.00 0.00 0.00 0.00 0.00 0.00 0.00 0.00 0.00 0.00
0.12 0.11 0.11 0.12 0.12 0.10 0.11 0.11 0.08 0.06 0.05 0.04 0.04 0.05 0.05 0.04 0.03 0.02 0.02 0.01 0.01 0.01 0.01 0.00 0.00 0.00 0.00 0.00 0.00 0.00 0.00 0.00 0.00 0.00 0.00 0.00 0.00 0.00 0.00 0.00 0.00 0.01 0.01
0.15 0.14 0.13 0.10 0.11 0.11 0.10 0.10 0.07 0.04 0.04 0.04 0.04 0.04 0.04 0.03 0.03 0.02 0.01 0.01 0.01 0.00 0.00 0.00 0.00 0.00 0.00 0.00 0.00 0.00 0.00 0.00 0.01 0.01 0.01 0.01 0.01 0.00 0.00 0.00 0.00 0.00 0.00
0.12 0.10 0.10 0.10 0.08 0.08 0.07 0.06 0.06 0.04 0.03 0.02 0.03 0.02 0.02 0.02 0.02 0.01 0.01 0.01 0.00 0.00 0.00 0.00 0.00 0.00 0.00 0.00 0.00 0.00 0.00 0.01 0.01 0.01 0.01 0.00 0.00 0.00 0.00 0.00 0.00 0.00 0.00
0.11 0.10 0.10 0.09 0.07 0.05 0.04 0.04 0.04 0.03 0.02 0.02 0.02 0.01 0.01 0.01 0.01 0.01 0.01 0.01 0.01 0.01 0.01 0.01 0.00 0.00 0.00 0.00 0.00 0.00 0.01 0.01 0.01 0.01 0.01 0.01 0.02 0.00 0.00 0.00 0.01 0.01 0.01
0.08 0.09 0.10 0.09 0.06 0.05 0.03 0.03 0.02 0.02 0.02 0.02 0.02 0.01 0.01 0.01 0.01 0.01 0.01 0.01 0.01 0.01 0.01 0.01 0.01 0.01 0.00 0.00 0.00 0.00 0.01 0.01 0.01 0.00 0.00 0.00 0.01 0.00 0.00 0.00 0.02 0.02 0.02
0.06 0.06 0.05 0.05 0.04 0.04 0.03 0.03 0.03 0.02 0.02 0.03 0.02 0.01 0.01 0.01 0.01 0.01 0.01 0.01 0.01 0.01 0.01 0.01 0.01 0.01 0.01 0.00 0.00 0.00 0.00 0.01 0.01 0.01 0.01 0.00 0.00 0.00 0.00 0.01 0.02 0.03 0.02
0.04 0.03 0.02 0.03 0.02 0.02 0.02 0.03 0.04 0.02 0.01 0.01 0.02 0.01 0.01 0.01 0.01 0.01 0.02 0.01 0.01 0.02 0.01 0.01 0.01 0.01 0.00 0.00 0.00 0.00 0.00 0.00 0.01 0.01 0.01 0.01 0.00 0.00 0.00 0.00 0.01 0.01 0.00
0.04 0.03 0.03 0.03 0.03 0.02 0.02 0.03 0.04 0.02 0.01 0.01 0.01 0.01 0.01 0.00 0.01 0.02 0.02 0.01 0.01 0.02 0.02 0.02 0.01 0.01 0.01 0.00 0.00 0.00 0.00 0.00 0.01 0.02 0.01 0.01 0.00 0.00 0.00 0.00 0.00 0.00 0.00
0.05 0.04 0.03 0.04 0.03 0.03 0.02 0.03 0.03 0.02 0.01 0.01 0.01 0.02 0.01 0.01 0.01 0.01 0.01 0.01 0.01 0.02 0.02 0.01 0.01 0.01 0.01 0.00 0.00 0.00 0.00 0.00 0.01 0.01 0.00 0.00 0.00 0.00 0.00 0.00 0.00 0.00 0.01
0.04 0.04 0.04 0.03 0.03 0.02 0.02 0.02 0.01 0.01 0.01 0.01 0.01 0.01 0.01 0.01 0.01 0.01 0.01 0.01 0.01 0.01 0.01 0.00 0.01 0.01 0.01 0.00 0.00 0.00 0.00 0.00 0.00 0.01 0.00 0.00 0.00 0.00 0.00 0.00 0.00 0.01 0.01
0.03 0.02 0.03 0.02 0.02 0.01 0.01 0.01 0.01 0.01 0.01 0.01 0.02 0.01 0.01 0.02 0.02 0.01 0.00 0.00 0.00 0.00 0.00 0.01 0.01 0.01 0.01 0.00 0.00 0.00 0.00 0.00 0.00 0.01 0.01 0.01 0.01 0.01 0.00 0.00 0.00 0.00 0.01
0.02 0.02 0.02 0.02 0.02 0.01 0.01 0.01 0.01 0.01 0.01 0.02 0.02 0.01 0.01 0.01 0.02 0.01 0.00 0.00 0.00 0.00 0.00 0.00 0.00 0.00 0.00 0.00 0.00 0.00 0.00 0.00 0.00 0.01 0.02 0.01 0.01 0.00 0.00 0.00 0.00 0.00 0.00
MSLP
1012.46 1012.39 1012.28 1012.15 1012.01 1011.89 1011.83 1011.85 1011.97 1012.19 1012.50 1012.88 1013.30 1013.74 1014.15 1014.53 1014.86 1015.15 1015.39 1015.62 1015.84 1016.07 1016.33 1016.61 1016.90 1017.21 1017.52 1017.82 1018.10 1018.37 1018.63 1018.91 1019.21 1019.54 1019.91 1020.31 1020.74 1021.15 1021.54 1021.86 1022.09 1022.22 1022.25
1013.34 1013.29 1013.15 1012.95 1012.71 1012.47 1012.28 1012.18 1012.19 1012.32 1012.57 1012.91 1013.32 1013.75 1014.18 1014.57 1014.93 1015.24 1015.52 1015.78 1016.04 1016.31 1016.59 1016.90 1017.20 1017.51 1017.79 1018.06 1018.29 1018.52 1018.75 1019.00 1019.30 1019.66 1020.08 1020.56 1021.07 1021.59 1022.07 1022.49 1022.79 1022.98 1023.05
1014.01 1014.01 1013.87 1013.62 1013.30 1012.96 1012.65 1012.44 1012.35 1012.41 1012.62 1012.94 1013.35 1013.80 1014.26 1014.70 1015.10 1015.45 1015.77 1016.07 1016.37 1016.67 1016.98 1017.30 1017.60 1017.89 1018.15 1018.37 1018.55 1018.72 1018.90 1019.12 1019.39 1019.75 1020.20 1020.72 1021.30 1021.89 1022.45 1022.93 1023.31 1023.55 1023.66
1014.50 1014.57 1014.47 1014.20 1013.83 1013.41 1013.02 1012.72 1012.56 1012.56 1012.74 1013.06 1013.49 1013.98 1014.49 1014.98 1015.43 1015.84 1016.20 1016.54 1016.87 1017.19 1017.51 1017.83 1018.13 1018.39 1018.62 1018.80 1018.94 1019.05 1019.18 1019.35 1019.59 1019.92 1020.35 1020.87 1021.46 1022.07 1022.66 1023.17 1023.58 1023.86 1024.00
1014.90 1015.06 1015.02 1014.78 1014.39 1013.94 1013.49 1013.13 1012.92 1012.89 1013.05 1013.38 1013.83 1014.37 1014.93 1015.47 1015.98 1016.43 1016.83 1017.19 1017.53 1017.86 1018.18 1018.49 1018.77 1019.02 1019.21 1019.36 1019.46 1019.53 1019.61 1019.73 1019.92 1020.20 1020.58 1021.06 1021.60 1022.18 1022.74 1023.24 1023.63 1023.91 1024.06
1015.27 1015.55 1015.60 1015.41 1015.06 1014.60 1014.14 1013.75 1013.52 1013.47 1013.63 1013.97 1014.45 1015.02 1015.62 1016.20 1016.74 1017.22 1017.64 1018.01 1018.35 1018.66 1018.96 1019.24 1019.50 1019.72 1019.90 1020.02 1020.10 1020.15 1020.19 1020.27 1020.40 1020.61 1020.92 1021.31 1021.77 1022.26 1022.74 1023.17 1023.52 1023.75 1023.88
1015.68 1016.09 1016.25 1016.15 1015.86 1015.44 1015.00 1014.63 1014.39 1014.35 1014.50 1014.85 1015.34 1015.92 1016.54 1017.15 1017.70 1018.18 1018.59 1018.95 1019.25 1019.53 1019.80 1020.04 1020.27 1020.47 1020.62 1020.73 1020.79 1020.83 1020.86 1020.90 1020.99 1021.14 1021.36 1021.65 1021.99 1022.37 1022.73 1023.05 1023.30 1023.47 1023.55
1016.15 1016.69 1016.95 1016.96 1016.76 1016.42 1016.04 1015.70 1015.49 1015.46 1015.63 1015.97 1016.46 1017.04 1017.65 1018.25 1018.78 1019.24 1019.62 1019.93 1020.19 1020.42 1020.63 1020.83 1021.01 1021.18 1021.31 1021.41 1021.48 1021.51 1021.53 1021.56 1021.61 1021.71 1021.85 1022.04 1022.27 1022.51 1022.74 1022.94 1023.09 1023.17 1023.19
1016.65 1017.29 1017.67 1017.78 1017.69 1017.44 1017.14 1016.87 1016.71 1016.71 1016.89 1017.23 1017.71 1018.27 1018.84 1019.40 1019.89 1020.31 1020.63 1020.89 1021.09 1021.26 1021.40 1021.55 1021.68 1021.81 1021.92 1022.01 1022.08 1022.12 1022.15 1022.18 1022.22 1022.27 1022.36 1022.47 1022.59 1022.72 1022.83 1022.91 1022.95 1022.95 1022.90
1017.12 1017.84 1018.30 1018.52 1018.52 1018.39 1018.19 1018.01 1017.92 1017.97 1018.16 1018.51 1018.96 1019.47 1020.01 1020.51 1020.94 1021.30 1021.57 1021.76 1021.90 1022.01 1022.09 1022.18 1022.26 1022.35 1022.43 1022.51 1022.57 1022.62 1022.66 1022.70 1022.74 1022.79 1022.84 1022.90 1022.96 1023.00 1023.02 1023.01 1022.96 1022.88 1022.77
1017.53 1018.28 1018.79 1019.08 1019.18 1019.15 1019.06 1018.98 1018.97 1019.07 1019.30 1019.64 1020.07 1020.55 1021.03 1021.47 1021.85 1022.14 1022.36 1022.50 1022.59 1022.65 1022.69 1022.72 1022.76 1022.80 1022.85 1022.91 1022.96 1023.01 1023.07 1023.12 1023.17 1023.23 1023.28 1023.32 1023.35 1023.35 1023.32 1023.25 1023.15 1023.01 1022.85
1017.85 1018.58 1019.10 1019.43 1019.60 1019.67 1019.68 1019.71 1019.79 1019.96 1020.22 1020.57 1020.98 1021.41 1021.84 1022.23 1022.55 1022.81 1022.99 1023.10 1023.16 1023.19 1023.20 1023.20 1023.21 1023.21 1023.23 1023.26 1023.29 1023.34 1023.39 1023.45 1023.53 1023.60 1023.67 1023.73 1023.76 1023.75 1023.71 1023.61 1023.48 1023.31 1023.12
1018.09 1018.77 1019.26 1019.60 1019.82 1019.95 1020.06 1020.18 1020.35 1020.58 1020.88 1021.24 1021.63 1022.04 1022.42 1022.77 1023.06 1023.28 1023.45 1023.56 1023.63 1023.66 1023.66 1023.66 1023.64 1023.62 1023.61 1023.60 1023.61 1023.64 1023.69 1023.75 1023.84 1023.94 1024.03 1024.11 1024.16 1024.18 1024.14 1024.05 1023.91 1023.73 1023.52
1018.31 1018.90 1019.34 1019.66 1019.89 1020.08 1020.26 1020.46 1020.70 1020.99 1021.33 1021.70 1022.08 1022.45 1022.79 1023.11 1023.37 1023.59 1023.76 1023.89 1023.99 1024.05 1024.08 1024.09 1024.08 1024.05 1024.02 1023.98 1023.96 1023.96 1023.99 1024.05 1024.14 1024.25 1024.37 1024.47 1024.55 1024.59 1024.58 1024.50 1024.36 1024.18 1023.96
1018.55 1019.04 1019.41 1019.70 1019.93 1020.15 1020.37 1020.63 1020.93 1021.27 1021.63 1022.00 1022.36 1022.70 1023.02 1023.30 1023.55 1023.76 1023.96 1024.12 1024.27 1024.38 1024.46 1024.50 1024.51 1024.49 1024.45 1024.40 1024.35 1024.32 1024.32 1024.37 1024.45 1024.56 1024.68 1024.81 1024.91 1024.96 1024.96 1024.89 1024.76 1024.57 1024.34
1018.87 1019.27 1019.57 1019.81 1020.03 1020.25 1020.51 1020.80 1021.14 1021.50 1021.87 1022.23 1022.56 1022.87 1023.14 1023.39 1023.62 1023.84 1024.06 1024.26 1024.46 1024.63 1024.77 1024.87 1024.91 1024.92 1024.88 1024.82 1024.75 1024.70 1024.68 1024.70 1024.76 1024.86 1024.98 1025.10 1025.20 1025.26 1025.26 1025.19 1025.05 1024.85 1024.61
1019.29 1019.62 1019.86 1020.05 1020.24 1020.47 1020.73 1021.05 1021.40 1021.76 1022.12 1022.45 1022.75 1023.01 1023.24 1023.45 1023.66 1023.87 1024.09 1024.33 1024.57 1024.80 1024.99 1025.15 1025.24 1025.28 1025.26 1025.21 1025.14 1025.07 1025.03 1025.02 1025.06 1025.14 1025.23 1025.34 1025.42 1025.46 1025.44 1025.36 1025.20 1024.99 1024.72
1019.79 1020.06 1020.26 1020.43 1020.60 1020.81 1021.08 1021.40 1021.74 1022.09 1022.42 1022.72 1022.97 1023.18 1023.35 1023.51 1023.68 1023.87 1024.09 1024.34 1024.60 1024.87 1025.12 1025.32 1025.46 1025.54 1025.55 1025.52 1025.46 1025.39 1025.34 1025.31 1025.33 1025.38 1025.45 1025.52 1025.57 1025.58 1025.53 1025.41 1025.23 1024.98 1024.69
1020.31 1020.56 1020.74 1020.88 1021.05 1021.26 1021.52 1021.83 1022.16 1022.48 1022.78 1023.03 1023.23 1023.38 1023.50 1023.60 1023.72 1023.87 1024.07 1024.31 1024.59 1024.87 1025.15 1025.39 1025.57 1025.69 1025.74 1025.74 1025.70 1025.64 1025.59 1025.56 1025.56 1025.58 1025.62 1025.66 1025.67 1025.63 1025.54 1025.38 1025.16 1024.88 1024.56
1020.79 1021.04 1021.21 1021.36 1021.52 1021.73 1021.99 1022.28 1022.60 1022.90 1023.16 1023.38 1023.52 1023.62 1023.68 1023.73 1023.80 1023.91 1024.07 1024.28 1024.55 1024.84 1025.13 1025.39 1025.61 1025.76 1025.86 1025.89 1025.88 1025.84 1025.80 1025.77 1025.75 1025.75 1025.75 1025.75 1025.71 1025.64 1025.50 1025.30 1025.04 1024.73 1024.39
1021.16 1021.42 1021.61 1021.77 1021.94 1022.15 1022.41 1022.70 1023.00 1023.29 1023.53 1023.71 1023.82 1023.88 1023.89 1023.90 1023.92 1023.99 1024.11 1024.30 1024.54 1024.82 1025.11 1025.39 1025.62 1025.81 1025.93 1026.00 1026.01 1026.00 1025.97 1025.93 1025.90 1025.88 1025.85 1025.81 1025.73 1025.61 1025.44 1025.20 1024.91 1024.57 1024.21
1021.40 1021.68 1021.88 1022.06 1022.26 1022.48 1022.75 1023.04 1023.33 1023.61 1023.84 1024.00 1024.10 1024.13 1024.12 1024.10 1024.09 1024.12 1024.22 1024.37 1024.59 1024.86 1025.14 1025.42 1025.67 1025.88 1026.03 1026.11 1026.15 1026.15 1026.12 1026.08 1026.03 1025.98 1025.92 1025.84 1025.73 1025.57 1025.36 1025.10 1024.79 1024.45 1024.08
1021.51 1021.80 1022.03 1022.24 1022.45 1022.70 1022.97 1023.27 1023.57 1023.84 1024.07 1024.23 1024.33 1024.36 1024.35 1024.31 1024.30 1024.31 1024.39 1024.53 1024.73 1024.98 1025.26 1025.54 1025.80 1026.01 1026.17 1026.27 1026.31 1026.31 1026.28 1026.22 1026.14 1026.06 1025.96 1025.84 1025.69 1025.51 1025.28 1025.01 1024.70 1024.35 1023.98
1021.52 1021.83 1022.07 1022.31 1022.55 1022.81 1023.10 1023.41 1023.72 1024.00 1024.23 1024.40 1024.51 1024.55 1024.55 1024.53 1024.52 1024.54 1024.61 1024.75 1024.95 1025.20 1025.47 1025.75 1026.01 1026.22 1026.38 1026.47 1026.51 1026.49 1026.42 1026.33 1026.21 1026.08 1025.94 1025.79 1025.62 1025.42 1025.18 1024.92 1024.61 1024.28 1023.93
1021.49 1021.80 1022.07 1022.33 1022.59 1022.87 1023.17 1023.49 1023.80 1024.09 1024.33 1024.51 1024.63 1024.69 1024.71 1024.71 1024.72 1024.76 1024.85 1024.99 1025.20 1025.45 1025.73 1026.01 1026.26 1026.47 1026.62 1026.69 1026.70 1026.65 1026.54 1026.40 1026.23 1026.05 1025.87 1025.69 1025.49 1025.29 1025.06 1024.81 1024.54 1024.24 1023.91
1021.47 1021.79 1022.07 1022.34 1022.62 1022.92 1023.23 1023.55 1023.86 1024.14 1024.38 1024.56 1024.69 1024.76 1024.80 1024.82 1024.85 1024.91 1025.02 1025.19 1025.41 1025.68 1025.96 1026.25 1026.50 1026.70 1026.83 1026.88 1026.85 1026.75 1026.59 1026.39 1026.18 1025.95 1025.74 1025.52 1025.32 1025.13 1024.93 1024.71 1024.48 1024.22 1023.93
Thickness
5706 5708 5711 5713 5716 5717 5718 5720 5719 5719 5717 5714 5711 5708 5705 5702 5700 5697 5696 5696 5695 5694 5695 5695 5694 5694 5694 5693 5692 5690 5689 5689 5688 5687 5683 5681 5680 5678 5677 5676 5676 5674 5672
5696 5697 5700 5703 5705 5707 5709 5711 5711 5711 5710 5708 5705 5702 5699 5694 5692 5690 5689 5689 5689 5687 5688 5688 5687 5686 5685 5684 5684 5683 5683 5682 5681 5681 5678 5673 5670 5667 5667 5666 5664 5663 5662
5685 5686 5690 5693 5696 5698 5699 5702 5702 5702 5701 5700 5697 5694 5691 5687 5682 5680 5680 5681 5680 5679 5679 5679 5679 5678 5678 5677 5676 5676 5675 5674 5673 5674 5673 5669 5665 5660 5656 5654 5653 5652 5650
5678 5678 5679 5682 5685 5687 5690 5691 5692 5693 5692 5691 5688 5687 5684 5680 5675 5672 5671 5671 5671 5670 5669 5670 5669 5668 5669 5668 5668 5668 5668 5667 5665 5663 5663 5663 5663 5657 5648 5645 5643 5641 5638
5669 5668 5669 5671 5674 5678 5680 5682 5683 5682 5683 5682 5681 5678 5675 5670 5666 5663 5661 5660 5660 5659 5659 5659 5658 5658 5658 5658 5657 5657 5658 5658 5657 5656 5654 5652 5650 5650 5646 5640 5634 5631 5628
5660 5660 5661 5662 5664 5667 5669 5671 5672 5672 5672 5672 5670 5668 5664 5660 5656 5653 5650 5648 5648 5647 5647 5647 5647 5647 5647 5646 5646 5646 5646 5645 5644 5644 5643 5642 5641 5638 5636 5632 5625 5622 5618
5651 5650 5651 5652 5652 5654 5656 5658 5660 5659 5660 5660 5658 5656 5652 5648 5646 5643 5640 5638 5636 5636 5634 5635 5635 5635 5635 5635 5635 5634 5633 5632 5631 5631 5630 5630 5628 5628 5627 5625 5619 5613 5609
5640 5639 5639 5639 5640 5642 5644 5646 5647 5646 5646 5646 5644 5642 5639 5637 5634 5630 5629 5628 5626 5624 5623 5623 5624 5624 5624 5624 5624 5623 5621 5620 5619 5617 5617 5617 5616 5615 5614 5613 5611 5607 5604
5629 5628 5627 5627 5628 5629 5631 5634 5634 5634 5633 5632 5631 5629 5627 5625 5621 5619 5618 5616 5614 5613 5612 5612 5612 5612 5612 5612 5612 5611 5609 5608 5608 5606 5605 5604 5601 5600 5600 5599 5599 5597 5596
5619 5617 5616 5616 5616 5617 5619 5620 5621 5620 5620 5618 5618 5616 5613 5611 5609 5607 5605 5603 5602 5601 5600 5600 5600 5600 5599 5599 5600 5599 5597 5595 5593 5591 5590 5589 5589 5586 5586 5585 5583 5582 5581
5609 5607 5606 5604 5605 5606 5607 5607 5608 5607 5606 5605 5603 5602 5600 5598 5596 5594 5591 5590 5590 5588 5588 5588 5588 5587 5587 5587 5587 5587 5585 5583 5581 5579 5578 5575 5574 5574 5573 5571 5569 5567 5565
5600 5598 5596 5595 5594 5594 5595 5595 5595 5595 5593 5592 5590 5588 5586 5585 5583 5580 5578 5577 5577 5576 5576 5576 5576 5575 5574 5574 5574 5574 5572 5571 5570 5567 5565 5563 5561 5558 5558 5556 5555 5552 5548
5591 5588 5587 5585 5584 5583 5583 5582 5582 5581 5580 5579 5578 5576 5574 5572 5570 5568 5567 5566 5565 5564 5564 5563 5563 5563 5562 5561 5561 5561 5560 5559 5557 5555 5553 5550 5548 5546 5544 5543 5542 5541 5538
5584 5580 5577 5575 5574 5573 5571 5571 5570 5569 5568 5567 5565 5563 5562 5560 5558 5557 5556 5554 5554 5553 5552 5552 5551 5551 5551 5550 5550 5549 5548 5546 5544 5542 5540 5538 5537 5534 5532 5531 5529 5528 5527
5577 5573 5570 5567 5565 5563 5561 5560 5559 5558 5558 5556 5554 5552 5550 5549 5548 5547 5545 5544 5543 5542 5541 5541 5540 5540 5539 5537 5537 5537 5537 5535 5533 5531 5529 5526 5521 5517 5516 5518 5517 5517 5518
5569 5565 5562 5558 5556 5555 5553 5551 5549 5548 5548 5546 5545 5543 5541 5539 5537 5536 5535 5533 5532 5531 5531 5530 5530 5529 5526 5521 5521 5523 5526 5525 5523 5522 5520 5516 5513 5508 5505 5503 5502 5500 5504
5563 5558 5554 5551 5548 5546 5544 5542 5540 5538 5538 5537 5535 5534 5533 5531 5530 5529 5527 5525 5523 5521 5521 5520 5520 5517 5511 5509 5509 5510 5515 5515 5513 5512 5510 5510 5506 5502 5502 5499 5495 5495 5492
5556 5550 5546 5543 5540 5538 5535 5533 5532 5530 5529 5528 5527 5526 5525 5524 5522 5520 5518 5517 5515 5513 5512 5510 5509 5507 5501 5499 5500 5501 5505 5506 5504 5503 5501 5500 5498 5495 5491 5494 5495 5494 5493
5549 5543 5540 5536 5532 5530 5528 5526 5525 5523 5522 5521 5520 5519 5518 5516 5514 5513 5511 5509 5507 5505 5504 5503 5501 5499 5494 5490 5491 5490 5498 5498 5497 5495 5493 5491 5490 5482 5481 5485 5489 5489 5488
5541 5536 5532 5529 5526 5523 5522 5520 5519 5517 5516 5515 5513 5512 5511 5509 5507 5504 5503 5501 5499 5498 5498 5495 5493 5491 5488 5482 5483 5482 5493 5492 5492 5490 5486 5479 5479 5475 5475 5479 5482 5483 5483
5535 5531 5528 5524 5521 5518 5516 5514 5513 5510 5509 5508 5506 5504 5503 5501 5499 5497 5496 5495 5494 5492 5491 5489 5486 5484 5480 5477 5475 5475 5481 5484 5485 5486 5484 5478 5471 5470 5470 5470 5473 5472 5472
5531 5527 5523 5519 5516 5513 5511 5508 5506 5504 5503 5502 5500 5498 5497 5497 5495 5492 5490 5489 5488 5487 5485 5483 5483 5480 5477 5472 5470 5469 5469 5469 5475 5477 5477 5471 5466 5465 5465 5466 5465 5466 5468
5526 5523 5519 5515 5511 5508 5506 5503 5500 5499 5498 5497 5495 5493 5492 5490 5489 5488 5486 5485 5484 5485 5484 5483 5481 5479 5477 5471 5466 5465 5465 5464 5467 5469 5464 5462 5462 5462 5463 5461 5462 5465 5470
5523 5520 5516 5512 5508 5505 5502 5499 5497 5495 5494 5492 5490 5489 5487 5486 5483 5483 5484 5483 5482 5480 5480 5479 5477 5476 5473 5471 5468 5467 5466 5462 5464 5466 5462 5459 5460 5460 5460 5462 5464 5465 5465
5521 5517 5514 5509 5505 5501 5498 5495 5493 5491 5489 5488 5486 5485 5484 5482 5479 5478 5475 5475 5470 5469 5470 5472 5472 5471 5468 5458 5453 5454 5460 5459 5460 5459 5463 5464 5463 5463 5463 5463 5463 5462 5462
5519 5515 5511 5507 5503 5499 5496 5492 5490 5488 5486 5484 5484 5484 5483 5480 5478 5476 5472 5463 5463 5460 5458 5457 5457 5459 5454 5452 5451 5450 5450 5451 5452 5456 5461 5460 5460 5460 5459 5459 5459 5459 5458